Location: George Washington National Forest Helicopter Landing Site
(38.6463°N, 79.0851°W)
Time: 20:46:51
(UTC-04:00)

Transit 4A - Visible Passes

Search period start: 23 August 2019 00:00
Search period end: 02 September 2019 00:00
Orbit: 863 x 981 km, 66.8° (Epoch: 22 August)

Date Brightness Start Highest point End Pass type
(mag) Time Alt. Az. Time Alt. Az. Time Alt. Az.
23 Aug 10.6 02:21:21 10° N 02:24:24 14° NE 02:27:23 10° ENE visible
23 Aug 8.1 04:05:49 10° NNW 04:11:59 69° ENE 04:17:55 10° SE visible
23 Aug 9.2 05:53:50 10° WNW 05:57:38 17° WSW 06:01:21 10° SW visible
23 Aug 10.8 21:00:57 10° WNW 21:04:21 15° NW 21:07:45 10° N visible
24 Aug 10.2 02:29:55 10° N 02:34:11 19° NE 02:38:22 10° E visible
24 Aug 7.7 04:15:09 10° NNW 04:21:20 82° WSW 04:27:17 10° SSE visible
24 Aug 9.5 06:05:58 10° W 06:06:36 10° W 06:07:15 10° WSW visible
24 Aug 11.1 21:13:02 10° NW 21:14:15 11° NW 21:15:29 10° NNW visible
25 Aug 9.7 02:38:46 10° N 02:43:53 26° NE 02:48:12 13° E visible
25 Aug 7.9 04:24:38 10° NW 04:30:35 54° WSW 04:31:25 50° SW visible
26 Aug 9.1 02:47:49 10° NNW 02:53:29 37° NE 02:54:22 35° ENE visible
26 Aug 8.9 04:34:18 10° NW 04:37:43 28° WNW 04:37:43 28° WNW visible
27 Aug 10.6 01:13:24 10° NNE 01:15:06 11° NE 01:16:47 10° NE visible
27 Aug 8.8 02:56:57 10° NNW 03:01:40 45° NNE 03:01:40 45° NNE visible
27 Aug 9.8 04:44:15 10° NW 04:45:03 13° WNW 04:45:03 13° WNW visible
28 Aug 10.2 01:21:26 10° N 01:24:58 15° NE 01:26:02 15° NE visible
28 Aug 9.2 03:06:13 10° NNW 03:09:27 33° NNW 03:09:27 33° NNW visible
29 Aug 10.0 01:30:08 10° N 01:34:05 21° NE 01:34:05 21° NE visible
29 Aug 9.7 03:15:36 10° NNW 03:17:32 21° NW 03:17:32 21° NW visible
30 Aug 9.8 01:39:04 10° N 01:42:20 24° NNE 01:42:20 24° NNE visible
30 Aug 10.1 03:25:08 10° NW 03:25:47 13° NW 03:25:47 13° NW visible
31 Aug 9.8 01:48:08 10° NNW 01:50:43 24° N 01:50:43 24° N visible
01 Sep 10.4 00:13:12 10° NNE 00:15:42 12° NE 00:15:43 12° NE visible
01 Sep 10.0 01:57:20 10° NNW 01:59:12 20° NNW 01:59:12 20° NNW visible
